Weather History for PAEN - February, 2011

Change the Weather History Date:

Friday, February 18, 2011

  Actual Average Record
Temperature  
Mean Temperature 20 °F -  
Max Temperature 26 °F 26 °F 41 °F (1963)
Min Temperature 12 °F 6 °F -31 °F (1954)
Degree Days  
Heating Degree Days 44    
Moisture  
Dew Point 14 °F    
Average Humidity 76    
Maximum Humidity 84    
Minimum Humidity 64    
Precipitation  
Precipitation 0.00 in - - ()
Sea Level Pressure  
Sea Level Pressure 30.00 in    
Wind  
Wind Speed 3 mph (NNE)    
Max Wind Speed 9 mph    
Max Gust Speed -    
Visibility 9 miles    
Events Snow    
Averages and records for this station are not official NWS values.
T = Trace of Precipitation, MM = Missing Value Source: NWS Daily Summary

Daily Weather History Graph

Daily Weather History Graph

Search for Another Location

Airport or City:

Trip Planner

Search our weather history database for the weather conditions in past years. The results will help you decide how hot, cold, wet, or windy it might be!

Date:

Astronomy

Feb. 18, 2011 Rise Set
Actual Time 8:36 AM AKST 6:02 PM AKST
Civil Twilight 7:52 AM AKST 6:46 PM AKST
Nautical Twilight 7:03 AM AKST 7:35 PM AKST
Astronomical Twilight 6:14 AM AKST 8:24 PM AKST
Moon 7:40 PM AKST (2/18) 8:09 AM AKST (2/18)
Length of Visible Light 10h 53m
Length of Day
9h 25m
Full, 100% of the Moon is Illuminated
Feb 18
Full
Feb 24
Last Quarter
Mar 4
New
Mar 12
First Quarter
Mar 19
Full

Hourly Weather History & Observations

Time (AKST) Temp. Windchill Dew Point Humidity Pressure Visibility Wind Dir Wind Speed Gust Speed Precip Events Conditions
12:53 AM 18.0 °F 12.7 °F 10.9 °F 74% 30.07 in 6.0 mi NNE 3.5 mph - 0.00 in Snow Light Snow
1:14 AM 17.6 °F 10.7 °F 12.2 °F 79% 30.05 in 2.5 mi NNE 4.6 mph - 0.00 in Snow Light Snow
1:21 AM 17.6 °F 12.3 °F 12.2 °F 79% 30.05 in 3.0 mi NE 3.5 mph - 0.00 in Snow Light Snow
1:53 AM 18.0 °F 12.7 °F 12.0 °F 78% 30.05 in 4.0 mi NNE 3.5 mph - 0.00 in Snow Light Snow
2:53 AM 18.0 °F - 12.9 °F 81% 30.04 in 10.0 mi Calm Calm - 0.00 in   Overcast
3:53 AM 19.0 °F - 12.9 °F 77% 30.03 in 10.0 mi Calm Calm - N/A   Overcast
4:53 AM 19.0 °F - 12.9 °F 77% 30.01 in 10.0 mi Calm Calm - N/A   Overcast
5:08 AM 19.4 °F - 14.0 °F 80% 30.00 in 10.0 mi Calm Calm - N/A   Overcast
5:53 AM 19.9 °F - 14.0 °F 78% 30.00 in 10.0 mi Calm Calm - N/A   Overcast
6:53 AM 19.9 °F - 15.1 °F 81% 29.99 in 10.0 mi Calm Calm - N/A   Overcast
7:53 AM 19.9 °F 13.4 °F 15.1 °F 81% 29.99 in 10.0 mi ENE 4.6 mph - N/A   Mostly Cloudy
8:53 AM 21.0 °F 14.6 °F 15.1 °F 78% 30.01 in 10.0 mi North 4.6 mph - N/A   Overcast
9:53 AM 21.9 °F 13.4 °F 15.1 °F 75% 30.01 in 10.0 mi NNE 6.9 mph - N/A   Overcast
10:53 AM 23.0 °F 15.8 °F 16.0 °F 74% 30.02 in 10.0 mi NNE 5.8 mph - N/A   Overcast
11:53 AM 24.1 °F 16.0 °F 17.1 °F 75% 30.02 in 10.0 mi NNE 6.9 mph - N/A   Mostly Cloudy
12:53 PM 25.0 °F 15.5 °F 19.0 °F 78% 30.03 in 10.0 mi NNE 9.2 mph - N/A   Overcast
1:53 PM 26.1 °F 17.6 °F 18.0 °F 71% 30.02 in 10.0 mi NNE 8.1 mph - N/A   Overcast
2:33 PM 26.6 °F 20.0 °F 15.8 °F 64% 30.01 in 10.0 mi NNE 5.8 mph - N/A   Scattered Clouds
2:53 PM 25.0 °F 19.3 °F 16.0 °F 69% 30.01 in 10.0 mi NNE 4.6 mph - N/A   Clear
3:53 PM 24.1 °F 18.2 °F 15.1 °F 69% 30.01 in 10.0 mi NNW 4.6 mph - N/A   Clear
4:53 PM 21.9 °F 15.7 °F 12.9 °F 68% 29.99 in 10.0 mi NNE 4.6 mph - N/A   Clear
5:53 PM 19.9 °F 12.1 °F 12.0 °F 71% 29.99 in 10.0 mi North 5.8 mph - N/A   Clear
6:53 PM 19.0 °F - 12.9 °F 77% 29.98 in 10.0 mi Calm Calm - N/A   Clear
7:53 PM 17.1 °F 10.0 °F 12.0 °F 81% 29.97 in 10.0 mi North 4.6 mph - N/A   Clear
8:53 PM 15.8 °F 8.6 °F 10.4 °F 79% 29.95 in 10.0 mi North 4.6 mph - N/A   Clear
9:53 PM 15.1 °F 7.7 °F 10.9 °F 84% 29.95 in 10.0 mi NNW 4.6 mph - N/A   Clear
10:53 PM 16.0 °F - 10.9 °F 81% 29.94 in 10.0 mi Calm Calm - N/A   Clear
11:53 PM 12.9 °F 6.9 °F 8.1 °F 81% 29.94 in 10.0 mi NW 3.5 mph - N/A   Clear